Time,TemperatureF,DewpointF,PressureIn,WindDirection,WindDirectionDegrees,WindSpeedMPH,WindSpeedGustMPH,Humidity,HourlyPrecipIn,Conditions,Clouds,dailyrainin,SoftwareType,DateUTC
2013-02-11 00:14:00,41.8,41.0,29.26,NNE,19,0.0,2.0,96,0.00,,,0.90,weatherlink.com 1.10,2013-02-11 00:14:00,
2013-02-11 00:29:00,41.9,41.0,29.27,NE,39,0.0,2.0,96,0.01,,,0.00,weatherlink.com 1.10,2013-02-11 00:29:00,
2013-02-11 00:44:00,42.0,41.0,29.28,NNW,335,2.0,3.0,96,0.01,,,0.00,weatherlink.com 1.10,2013-02-11 00:44:00,
2013-02-11 00:59:00,41.9,41.0,29.28,ENE,69,10.0,10.0,95,0.02,,,0.01,weatherlink.com 1.10,2013-02-11 00:59:00,
2013-02-11 01:14:00,41.2,40.0,29.29,ENE,64,5.0,9.0,95,0.02,,,0.02,weatherlink.com 1.10,2013-02-11 01:14:00,
2013-02-11 01:29:00,40.9,40.0,29.29,ENE,72,3.0,8.0,95,0.02,,,0.02,weatherlink.com 1.10,2013-02-11 01:29:00,
2013-02-11 01:44:00,40.7,39.0,29.30,ENE,62,2.0,10.0,94,0.02,,,0.02,weatherlink.com 1.10,2013-02-11 01:44:00,
2013-02-11 01:59:00,40.5,38.0,29.30,NE,46,4.0,12.0,92,0.01,,,0.02,weatherlink.com 1.10,2013-02-11 01:59:00,
2013-02-11 02:14:00,40.5,38.0,29.31,NE,46,4.0,7.0,92,0.00,,,0.02,weatherlink.com 1.10,2013-02-11 02:14:00,
2013-02-11 02:29:00,40.6,38.0,29.31,ENE,77,5.0,10.0,91,0.00,,,0.02,weatherlink.com 1.10,2013-02-11 02:29:00,
2013-02-11 02:44:00,40.6,38.0,29.32,NE,51,4.0,10.0,90,0.00,,,0.02,weatherlink.com 1.10,2013-02-11 02:44:00,
2013-02-11 02:59:00,40.6,38.0,29.32,NNE,23,7.0,7.0,90,0.00,,,0.02,weatherlink.com 1.10,2013-02-11 02:59:00,
2013-02-11 03:14:00,40.5,38.0,29.33,ENE,75,2.0,9.0,89,0.00,,,0.02,weatherlink.com 1.10,2013-02-11 03:14:00,
2013-02-11 03:29:00,40.5,38.0,29.34,ENE,66,4.0,9.0,89,0.00,,,0.02,weatherlink.com 1.10,2013-02-11 03:29:00,
2013-02-11 03:44:00,40.4,37.0,29.34,ENE,72,3.0,12.0,88,0.00,,,0.02,weatherlink.com 1.10,2013-02-11 03:44:00,
2013-02-11 03:59:00,40.4,37.0,29.34,NE,50,1.0,10.0,88,0.00,,,0.02,weatherlink.com 1.10,2013-02-11 03:59:00,
2013-02-11 04:14:00,40.4,37.0,29.35,NW,325,4.0,11.0,88,0.00,,,0.02,weatherlink.com 1.10,2013-02-11 04:14:00,
2013-02-11 04:29:00,40.4,37.0,29.36,ENE,73,5.0,6.0,88,0.00,,,0.02,weatherlink.com 1.10,2013-02-11 04:29:00,
2013-02-11 04:44:00,40.4,37.0,29.36,NNE,27,9.0,9.0,88,0.00,,,0.02,weatherlink.com 1.10,2013-02-11 04:44:00,
2013-02-11 04:59:00,40.4,37.0,29.38,ENE,58,0.0,6.0,88,0.00,,,0.02,weatherlink.com 1.10,2013-02-11 04:59:00,
2013-02-11 05:14:00,40.4,37.0,29.38,East,82,3.0,9.0,88,0.00,,,0.02,weatherlink.com 1.10,2013-02-11 05:14:00,
2013-02-11 05:29:00,40.4,37.0,29.39,NW,326,1.0,9.0,88,0.00,,,0.02,weatherlink.com 1.10,2013-02-11 05:29:00,
2013-02-11 05:44:00,40.4,37.0,29.40,NW,325,3.0,5.0,88,0.00,,,0.02,weatherlink.com 1.10,2013-02-11 05:44:00,
2013-02-11 05:59:00,40.4,38.0,29.39,NNE,18,3.0,6.0,89,0.00,,,0.02,weatherlink.com 1.10,2013-02-11 05:59:00,
2013-02-11 06:14:00,40.8,38.0,29.41,NE,50,4.0,6.0,89,0.00,,,0.02,weatherlink.com 1.10,2013-02-11 06:14:00,
2013-02-11 06:30:00,40.3,38.0,29.42,ENE,72,3.0,7.0,91,0.00,,,0.02,weatherlink.com 1.10,2013-02-11 06:30:00,
2013-02-11 06:45:00,40.0,38.0,29.42,ENE,77,5.0,6.0,93,0.00,,,0.02,weatherlink.com 1.10,2013-02-11 06:45:00,
2013-02-11 07:00:00,39.8,38.0,29.43,East,96,1.0,8.0,94,0.01,,,0.02,weatherlink.com 1.10,2013-02-11 07:00:00,
2013-02-11 07:15:00,39.6,38.0,29.45,North,8,2.0,8.0,94,0.01,,,0.02,weatherlink.com 1.10,2013-02-11 07:15:00,
2013-02-11 07:30:00,39.5,38.0,29.45,ENE,64,4.0,9.0,95,0.01,,,0.02,weatherlink.com 1.10,2013-02-11 07:30:00,
2013-02-11 07:45:00,39.4,38.0,29.46,NE,51,2.0,8.0,95,0.01,,,0.02,weatherlink.com 1.10,2013-02-11 07:45:00,
2013-02-11 08:00:00,39.3,38.0,29.47,ENE,76,2.0,4.0,95,0.01,,,0.03,weatherlink.com 1.10,2013-02-11 08:00:00,
2013-02-11 08:15:00,39.4,38.0,29.48,North,9,2.0,5.0,95,0.01,,,0.03,weatherlink.com 1.10,2013-02-11 08:15:00,
2013-02-11 08:30:00,39.4,38.0,29.48,East,82,2.0,7.0,95,0.02,,,0.04,weatherlink.com 1.10,2013-02-11 08:30:00,
2013-02-11 08:45:00,39.6,38.0,29.50,NE,54,5.0,7.0,95,0.02,,,0.04,weatherlink.com 1.10,2013-02-11 08:45:00,
2013-02-11 09:00:00,39.5,38.0,29.50,ENE,65,3.0,7.0,95,0.01,,,0.04,weatherlink.com 1.10,2013-02-11 09:00:00,
2013-02-11 09:15:00,39.5,38.0,29.51,ENE,70,2.0,5.0,94,0.01,,,0.04,weatherlink.com 1.10,2013-02-11 09:15:00,
2013-02-11 09:30:00,39.4,38.0,29.52,NE,40,3.0,8.0,94,0.00,,,0.04,weatherlink.com 1.10,2013-02-11 09:30:00,
2013-02-11 09:45:00,39.6,38.0,29.53,ENE,60,2.0,4.0,94,0.00,,,0.04,weatherlink.com 1.10,2013-02-11 09:45:00,
2013-02-11 10:00:00,39.8,38.0,29.54,ENE,74,4.0,6.0,94,0.00,,,0.04,weatherlink.com 1.10,2013-02-11 10:00:00,
2013-02-11 10:15:00,39.9,38.0,29.55,East,100,3.0,5.0,93,0.01,,,0.05,weatherlink.com 1.10,2013-02-11 10:15:00,
2013-02-11 10:30:00,40.0,38.0,29.55,NE,44,2.0,6.0,93,0.01,,,0.05,weatherlink.com 1.10,2013-02-11 10:30:00,
2013-02-11 10:45:00,40.1,38.0,29.55,East,88,2.0,5.0,92,0.01,,,0.05,weatherlink.com 1.10,2013-02-11 10:45:00,
2013-02-11 11:00:00,40.2,38.0,29.56,East,84,2.0,5.0,92,0.01,,,0.05,weatherlink.com 1.10,2013-02-11 11:00:00,
2013-02-11 11:15:00,40.2,38.0,29.57,ENE,64,3.0,7.0,91,0.00,,,0.05,weatherlink.com 1.10,2013-02-11 11:15:00,
2013-02-11 11:30:00,40.4,38.0,29.57,East,85,3.0,5.0,90,0.00,,,0.05,weatherlink.com 1.10,2013-02-11 11:30:00,
2013-02-11 11:45:00,40.6,38.0,29.58,ENE,62,3.0,8.0,90,0.00,,,0.05,weatherlink.com 1.10,2013-02-11 11:45:00,
2013-02-11 12:00:00,40.6,38.0,29.59,East,81,5.0,8.0,89,0.00,,,0.05,weatherlink.com 1.10,2013-02-11 12:00:00,
2013-02-11 12:15:00,40.7,38.0,29.59,North,8,2.0,6.0,88,0.00,,,0.05,weatherlink.com 1.10,2013-02-11 12:15:00,
2013-02-11 12:30:00,40.7,37.0,29.60,East,98,4.0,8.0,87,0.00,,,0.05,weatherlink.com 1.10,2013-02-11 12:30:00,
2013-02-11 12:46:00,40.8,37.0,29.61,East,82,3.0,5.0,86,0.00,,,0.05,weatherlink.com 1.10,2013-02-11 12:46:00,
2013-02-11 13:01:00,40.9,37.0,29.61,NE,56,3.0,7.0,87,0.00,,,0.05,weatherlink.com 1.10,2013-02-11 13:01:00,
2013-02-11 13:16:00,40.8,37.0,29.62,East,101,3.0,6.0,86,0.00,,,0.05,weatherlink.com 1.10,2013-02-11 13:16:00,
2013-02-11 13:31:00,40.8,37.0,29.63,NNE,27,3.0,6.0,86,0.00,,,0.05,weatherlink.com 1.10,2013-02-11 13:31:00,
2013-02-11 13:46:00,40.7,37.0,29.63,ENE,67,5.0,7.0,85,0.00,,,0.05,weatherlink.com 1.10,2013-02-11 13:46:00,
2013-02-11 14:01:00,40.7,37.0,29.64,ENE,75,4.0,6.0,85,0.00,,,0.05,weatherlink.com 1.10,2013-02-11 14:01:00,
2013-02-11 14:16:00,40.7,36.0,29.64,ENE,75,3.0,7.0,84,0.00,,,0.05,weatherlink.com 1.10,2013-02-11 14:16:00,
2013-02-11 14:31:00,40.8,36.0,29.65,ENE,60,2.0,5.0,83,0.00,,,0.05,weatherlink.com 1.10,2013-02-11 14:31:00,
2013-02-11 14:46:00,40.8,36.0,29.66,NE,56,1.0,5.0,83,0.00,,,0.05,weatherlink.com 1.10,2013-02-11 14:46:00,
2013-02-11 15:01:00,40.8,36.0,29.66,NNE,18,1.0,6.0,82,0.00,,,0.05,weatherlink.com 1.10,2013-02-11 15:01:00,
2013-02-11 15:16:00,40.7,36.0,29.66,East,82,0.0,4.0,82,0.00,,,0.05,weatherlink.com 1.10,2013-02-11 15:16:00,
2013-02-11 15:31:00,40.8,36.0,29.67,NE,51,1.0,4.0,83,0.00,,,0.05,weatherlink.com 1.10,2013-02-11 15:31:00,
2013-02-11 15:46:00,40.8,36.0,29.67,NE,52,1.0,2.0,83,0.00,,,0.05,weatherlink.com 1.10,2013-02-11 15:46:00,
2013-02-11 16:01:00,40.9,36.0,29.67,ENE,70,1.0,2.0,84,0.00,,,0.05,weatherlink.com 1.10,2013-02-11 16:01:00,
2013-02-11 16:16:00,41.0,37.0,29.67,ENE,65,4.0,5.0,84,0.00,,,0.05,weatherlink.com 1.10,2013-02-11 16:16:00,
2013-02-11 16:31:00,40.9,36.0,29.68,ENE,64,2.0,4.0,84,0.00,,,0.05,weatherlink.com 1.10,2013-02-11 16:31:00,
2013-02-11 16:46:00,40.9,37.0,29.68,East,83,1.0,3.0,86,0.00,,,0.05,weatherlink.com 1.10,2013-02-11 16:46:00,
2013-02-11 17:01:00,40.8,37.0,29.69,SSW,210,1.0,2.0,87,0.00,,,0.05,weatherlink.com 1.10,2013-02-11 17:01:00,
2013-02-11 17:16:00,40.7,38.0,29.70,ENE,68,1.0,1.0,88,0.00,,,0.05,weatherlink.com 1.10,2013-02-11 17:16:00,
2013-02-11 17:31:00,40.5,38.0,29.70,SSW,193,1.0,2.0,89,0.00,,,0.05,weatherlink.com 1.10,2013-02-11 17:31:00,
2013-02-11 17:46:00,40.5,38.0,29.71,NE,51,0.0,2.0,90,0.00,,,0.05,weatherlink.com 1.10,2013-02-11 17:46:00,
2013-02-11 18:01:00,40.4,38.0,29.72,NE,56,4.0,6.0,91,0.00,,,0.05,weatherlink.com 1.10,2013-02-11 18:01:00,
2013-02-11 18:16:00,40.3,38.0,29.72,ENE,64,1.0,4.0,92,0.00,,,0.05,weatherlink.com 1.10,2013-02-11 18:16:00,
2013-02-11 18:31:00,40.2,38.0,29.73,ENE,72,2.0,4.0,93,0.00,,,0.05,weatherlink.com 1.10,2013-02-11 18:31:00,
2013-02-11 18:46:00,40.0,38.0,29.73,ENE,76,0.0,4.0,93,0.00,,,0.05,weatherlink.com 1.10,2013-02-11 18:46:00,
2013-02-11 19:01:00,39.9,38.0,29.74,ENE,72,1.0,4.0,94,0.00,,,0.05,weatherlink.com 1.10,2013-02-11 19:01:00,
2013-02-11 19:16:00,40.0,39.0,29.75,ENE,67,0.0,3.0,94,0.00,,,0.05,weatherlink.com 1.10,2013-02-11 19:16:00,
2013-02-11 19:31:00,39.9,38.0,29.75,WSW,243,1.0,3.0,94,0.01,,,0.06,weatherlink.com 1.10,2013-02-11 19:31:00,
2013-02-11 19:46:00,39.8,38.0,29.76,NE,56,0.0,3.0,94,0.02,,,0.06,weatherlink.com 1.10,2013-02-11 19:46:00,
2013-02-11 20:01:00,39.9,39.0,29.76,East,93,1.0,3.0,95,0.02,,,0.06,weatherlink.com 1.10,2013-02-11 20:01:00,
2013-02-11 20:16:00,39.9,39.0,29.77,ENE,68,1.0,4.0,95,0.02,,,0.06,weatherlink.com 1.10,2013-02-11 20:16:00,
2013-02-11 20:31:00,39.6,38.0,29.77,ENE,77,1.0,2.0,95,0.02,,,0.07,weatherlink.com 1.10,2013-02-11 20:31:00,
2013-02-11 20:46:00,39.8,39.0,29.78,ENE,60,0.0,4.0,95,0.02,,,0.08,weatherlink.com 1.10,2013-02-11 20:46:00,
2013-02-11 21:02:00,39.5,38.0,29.79,ENE,68,2.0,5.0,95,0.02,,,0.09,weatherlink.com 1.10,2013-02-11 21:02:00,
2013-02-11 21:17:00,39.6,38.0,29.79,ENE,68,2.0,2.0,95,0.03,,,0.09,weatherlink.com 1.10,2013-02-11 21:17:00,
2013-02-11 21:32:00,39.9,39.0,29.80,ENE,71,2.0,3.0,95,0.03,,,0.10,weatherlink.com 1.10,2013-02-11 21:32:00,
2013-02-11 21:47:00,39.9,39.0,29.80,East,90,1.0,4.0,95,0.03,,,0.11,weatherlink.com 1.10,2013-02-11 21:47:00,
2013-02-11 22:02:00,39.8,39.0,29.81,East,91,2.0,3.0,95,0.02,,,0.11,weatherlink.com 1.10,2013-02-11 22:02:00,
2013-02-11 22:17:00,39.8,39.0,29.82,ENE,76,0.0,3.0,95,0.02,,,0.12,weatherlink.com 1.10,2013-02-11 22:17:00,
2013-02-11 22:32:00,39.8,38.0,29.82,South,184,0.0,2.0,94,0.02,,,0.12,weatherlink.com 1.10,2013-02-11 22:32:00,
2013-02-11 22:47:00,39.8,38.0,29.82,ENE,66,1.0,2.0,94,0.01,,,0.12,weatherlink.com 1.10,2013-02-11 22:47:00,
2013-02-11 23:02:00,39.9,38.0,29.83,SW,215,0.0,1.0,94,0.01,,,0.12,weatherlink.com 1.10,2013-02-11 23:02:00,
2013-02-11 23:17:00,39.9,38.0,29.83,East,80,0.0,1.0,94,0.00,,,0.12,weatherlink.com 1.10,2013-02-11 23:17:00,
2013-02-11 23:32:00,39.9,38.0,29.84,ENE,68,0.0,2.0,94,0.00,,,0.12,weatherlink.com 1.10,2013-02-11 23:32:00,
2013-02-11 23:47:00,39.9,38.0,29.84,NE,49,0.0,1.0,94,0.00,,,0.12,weatherlink.com 1.10,2013-02-11 23:47:00,